Location: Nassau
(25.0830°N, 77.3500°W)
Time: 00:25:25
(UTC-04:00)

ISS - All Passes

Search period start: 02 September 2014 00:00
Search period end: 12 September 2014 00:00
Orbit: 414 x 419 km, 51.6° (Epoch: 01 September)

Date Brightness Start Highest point End Pass type
(mag) Time Alt. Az. Time Alt. Az. Time Alt. Az.
02 Sep - 08:08:47 10° S 08:11:26 22° SE 08:14:04 10° ENE daylight
02 Sep - 09:45:39 10° W 09:48:04 19° NW 09:50:29 10° N daylight
02 Sep - 17:56:32 10° NW 17:59:51 70° SW 18:03:09 10° SE daylight
03 Sep - 07:22:14 10° SE 07:23:01 11° SE 07:23:49 10° ESE daylight
03 Sep - 08:56:21 10° WSW 08:59:26 35° NW 09:02:31 10° NNE daylight
03 Sep - 17:08:04 10° NNW 17:11:18 49° NE 17:14:32 10° SE daylight
04 Sep - 08:07:33 10° SW 08:10:51 81° NW 08:14:10 10° NE daylight
04 Sep - 16:19:54 10° NNW 16:22:41 24° NE 16:25:27 10° E daylight
04 Sep - 17:57:03 10° W 17:59:13 16° SW 18:01:22 10° SSW daylight
05 Sep - 07:19:09 10° SSW 07:22:19 42° SE 07:25:28 10° NE daylight
05 Sep - 08:58:00 10° WNW 08:59:10 11° NW 09:00:19 10° NNW daylight
05 Sep - 15:32:15 10° N 15:33:57 13° NE 15:35:39 10° ENE daylight
05 Sep - 17:07:41 10° WNW 17:10:44 34° SW 17:13:46 10° SSE daylight
06 Sep - 06:31:19 10° S 06:33:48 20° SE 06:36:17 10° ENE visible
06 Sep - 08:07:50 10° W 08:10:24 20° NW 08:12:58 10° N daylight
06 Sep - 16:18:51 10° NW 16:22:10 81° SW 16:25:29 10° SE daylight
07 Sep - 07:18:32 10° WSW 07:21:41 40° NW 07:24:50 10° NNE daylight
07 Sep - 15:30:20 10° NNW 15:33:32 43° NE 15:36:42 10° ESE daylight
08 Sep - 06:29:43 10° SW 06:33:01 88° SE 06:36:21 10° NE visible
08 Sep - 14:42:09 10° N 14:44:48 22° NE 14:47:26 10° E daylight
08 Sep - 16:18:59 10° W 16:21:22 18° SW 16:23:45 10° S daylight
09 Sep - 05:41:19 10° SSW 05:44:24 37° SE 05:47:30 10° ENE visible
09 Sep - 07:19:39 10° WNW 07:21:12 13° NW 07:22:45 10° NNW daylight
09 Sep - 13:54:36 10° NNE 13:55:58 12° NE 13:57:20 10° ENE daylight
09 Sep - 15:29:40 10° WNW 15:32:47 39° SW 15:35:54 10° SSE daylight
10 Sep - 04:53:32 10° S 04:55:49 17° SE 04:58:06 10° E visible
10 Sep - 06:29:39 10° W 06:32:21 23° NW 06:35:04 10° N visible
10 Sep - 14:40:48 10° NW 14:44:08 87° NE 14:47:26 10° SE daylight
11 Sep - 05:40:22 10° WSW 05:43:34 46° NW 05:46:47 10° NNE visible
11 Sep - 13:52:16 10° NNW 13:55:23 37° NE 13:58:30 10° ESE daylight
